Home > Weather > Bielsko-Biała > Past weeks

Flag for Poland Past Weather in Bielsko-Biała, Poland — Yesterday and Last 2 Weeks

Now
68 °F

Overcast.


Feels Like: 68 °F
Forecast: 52 / 79 °F
Wind: 1 mph from East

Location: Katowice

Current Time: Jun 28, 2016 at 3:22:53 PM

Latest Report: Jun 28, 2016 at 2:00 PM


Visibility: 19 mi

Pressure: 30.04 "Hg

Humidity: 55%

Dew Point: 52 °F

Location of Bielsko-BiałaLocation

Past Weather in Bielsko-Biała — Graph

°F

Bielsko-Biała Temperature Yesterday

Maximum temperature yesterday: 69 °F (at 2:00 PM)
Minimum temperature yesterday: 55 °F (at 2:00 AM)
Average temperature yesterday: 63 °F

High & Low Weather Summary for the Past Weeks

 TemperatureHumidityPressure
High91 °F (Jun 25, 5:00 PM)98% (Jun 15, 7:00 AM)30.31 "Hg (Jun 15, 7:00 AM)
Low49 °F (Jun 19, 5:00 AM)30% (Jun 18, 6:00 PM)29.44 "Hg (Jun 17, 9:00 AM)
Average67 °F70%29.95 "Hg
* Reported Jun 13 2:00 PM — Jun 28 2:00 PM, Bielsko-Biała, Weather by CustomWeather, © 2016

Note: Actual official high and low records may vary slightly from our data, if they occured in-between our weather recording intervals... More about our weather records

Advertising

Bielsko-Biała Weather History for the Previous 24 Hours

Scroll right to see more
 ConditionsComfort  
Time TempWeatherWind HumidityBarometerVisibility
2:00 PM
Tue, Jun 28
68 °FOvercast.1 mph55%30.04 "Hg19 mi
1:00 PM68 °FOvercast.1 mph54%30.05 "Hg19 mi
12:00 PM68 °FOvercast.2 mph61%30.06 "Hg12 mi
11:00 AM65 °FOvercast.1 mph70%30.06 "Hg12 mi
10:00 AM62 °FOvercast.1 mph78%30.07 "Hg6 mi
9:00 AM61 °FOvercast.1 mph80%30.07 "Hg6 mi
8:00 AM61 °FOvercast.1 mph84%30.07 "Hg5 mi
7:00 AM60 °FLight rain. Overcast.1 mph91%30.07 "Hg4 mi
6:00 AM59 °FLight rain. Overcast.1 mph90%30.07 "Hg5 mi
5:00 AM59 °FLight rain. Overcast.1 mph92%30.06 "Hg4 mi
3:00 AM58 °FLight rain. Overcast.1 mph94%30.07 "Hg4 mi
2:00 AM58 °FLight rain. Overcast.1 mph92%30.07 "Hg6 mi
1:00 AM60 °FLight rain. Overcast.1 mph87%30.07 "Hg6 mi
12:00 AM60 °FOvercast.1 mph86%30.06 "Hg12 mi
11:00 PM
Mon, Jun 27
60 °FSprinkles. Overcast.2 mph88%30.07 "Hg6 mi
10:00 PM61 °FSprinkles. Overcast.1 mph88%30.06 "Hg6 mi
9:00 PM64 °FSprinkles. Overcast.1 mph79%30.03 "Hg12 mi
8:00 PM65 °FOvercast.2 mph72%30.03 "Hg19 mi
7:00 PM67 °FOvercast.1 mph57%30.01 "Hg19 mi
6:00 PM68 °FOvercast.1 mph56%30.01 "Hg19 mi
5:00 PM68 °FOvercast.1 mph57%30.01 "Hg19 mi
4:00 PM68 °FOvercast.1 mph57%30.01 "Hg19 mi
3:00 PM69 °FOvercast.2 mph55%30.02 "Hg19 mi
Weather by CustomWeather, © 2016

See weather overviewHow to use our weather pages